Regional Weather Roundup
Issued by NWS

Home | Current Version | Previous Version | Text Only | Print | Product List | Glossary On
Versions: 1 2 3 4 5 6 7 8 9 10 11 12 13 14 15 16 17 18 19 20 21 22 23 24 25 26 27 28 29 30 31 32 33 34 35 36 37 38 39 40 41 42 43 44 45 46 47 48 49 50
295
ASUS43 KTOP 050959
RWRKS

WEATHER ROUNDUP FOR KANSAS
NATIONAL WEATHER SERVICE GOODLAND KS
500 AM CDT THU MAY 05 2016

NOTE:  "FAIR" INDICATES FEW OR NO CLOUDS BELOW 12,000 FEET WITH NO
SIGNIFICANT WEATHER AND/OR OBSTRUCTIONS TO VISIBILITY.

KSZ001>006-013>018-027>032-041>047-051100-
NORTHWEST KANSAS

CITY           SKY/WX    TMP DP  RH WIND       PRES   REMARKS
GOODLAND       CLEAR     52  42  69 SW12      30.10S
HAYS           CLEAR     43  34  70 NW5       30.09S
HILL CITY      CLEAR     43  40  89 W3        30.10S
RUSSELL        CLEAR     49  41  74 W7        30.07S
$$

KSZ061>065-074>080-084>089-051100-
SOUTHWEST KANSAS

CITY           SKY/WX    TMP DP  RH WIND       PRES   REMARKS
DODGE CITY     CLEAR     48  41  76 S5        30.10S
ELKHART          N/A     53  39  59 W5          N/A
GARDEN CITY    CLEAR     50  43  77 SW6       30.10R
GREAT BEND     CLEAR     43  34  70 W6        30.09R
LIBERAL        CLEAR     52  41  66 S3        30.11S
$$

KSZ066>073-081>083-090>101-051100-
SOUTHEAST KANSAS

CITY           SKY/WX    TMP DP  RH WIND       PRES   REMARKS
CHANUTE        CLEAR     43  40  89 NW3       30.03S
COFFEYVILLE    CLEAR     47  43  86 NW3       30.03R
HUTCHINSON     CLEAR     43  39  86 NW5       30.07R
MEDICINE LODGE   N/A     45  42  89 W5        30.08R
NEWTON         CLEAR     48  34  57 NW3       30.08R
PARSONS        CLEAR     43  42  97 CALM      30.04S
WICHITA INTL   CLEAR     50  40  68 NW6       30.06R
WICHITA JABRA  CLEAR     49  38  65 W6        30.06R
WINFIELD       CLEAR     44  41  89 NW3       30.27F
$$

KSZ007>012-019>026-033>040-048>060-102>105-051100-
NORTHEAST KANSAS

CITY           SKY/WX    TMP DP  RH WIND       PRES   REMARKS
CONCORDIA      CLEAR     44  37  76 W8        30.07R
EMPORIA        CLEAR     46  41  82 W5        30.04S
LAWRENCE       CLEAR     41  39  93 NW6       30.03R
MANHATTAN      CLEAR     41  38  89 CALM      30.06R
OLATHE IND     CLEAR     47  40  76 W6        30.02S
OLATHE EXE     CLEAR     49  39  68 NW7       30.01S
SALINA         CLEAR     45  39  79 CALM      30.07R
TOPEKA BILLARD CLEAR     48  42  80 CALM      30.03S
TOPEKA FORBES  CLEAR     45  40  82 CALM      30.03R
$$




USA.gov is the U.S. government's official web portal to all federal, state and local government web resources and services.